Precipitable_Water
0.99 0.99 0.93 0.90 0.90 0.89 0.87 0.86 0.86 0.91 0.92 0.90 0.86 0.87 0.89 0.90 0.88 0.86 0.87 0.85 0.86 0.86 0.86 0.86 0.86 0.83 0.78 0.75 0.72 0.71 0.71 0.70 0.70 0.68 0.66 0.64 0.63 0.63 0.62 0.60 0.56 0.57 0.58 0.57 0.57 0.54 0.51 0.49 0.49 0.49 0.48 0.46 0.46 0.47 0.46 0.46 0.45 0.43 0.42 0.40 0.38 0.38 0.36 0.32 0.29 0.28 0.31 0.36 0.34 0.33 0.35 0.35 0.31 0.33 0.31 0.31 0.31 0.32 0.33 0.34 0.35 0.36 0.37 0.38 0.40
0.92 0.93 0.92 0.83 0.87 0.91 0.88 0.88 0.90 0.91 0.95 0.92 0.87 0.89 0.92 0.92 0.93 0.92 0.91 0.92 0.93 0.90 0.89 0.90 0.91 0.92 0.89 0.87 0.86 0.86 0.86 0.84 0.84 0.81 0.76 0.73 0.71 0.72 0.71 0.68 0.63 0.60 0.60 0.60 0.61 0.62 0.59 0.56 0.56 0.57 0.58 0.51 0.51 0.53 0.53 0.51 0.49 0.47 0.47 0.45 0.44 0.43 0.47 0.41 0.39 0.37 0.35 0.38 0.37 0.40 0.37 0.39 0.33 0.37 0.34 0.33 0.33 0.36 0.36 0.36 0.37 0.37 0.36 0.37 0.38
0.89 0.88 0.87 0.86 0.87 0.92 0.94 0.91 0.91 0.96 0.94 0.92 0.92 0.96 1.00 1.00 1.01 0.97 0.94 0.96 1.01 0.99 0.97 0.95 0.94 0.94 0.93 0.93 0.92 0.91 0.91 0.90 0.90 0.88 0.87 0.84 0.81 0.79 0.79 0.76 0.71 0.67 0.64 0.62 0.61 0.62 0.61 0.60 0.59 0.59 0.60 0.57 0.56 0.56 0.55 0.54 0.53 0.51 0.50 0.49 0.46 0.46 0.47 0.48 0.45 0.42 0.42 0.44 0.46 0.43 0.43 0.43 0.41 0.40 0.41 0.41 0.41 0.41 0.39 0.40 0.40 0.41 0.41 0.41 0.40
0.92 0.93 0.95 0.94 0.93 0.93 0.94 0.93 0.96 0.97 0.97 0.96 0.98 1.01 1.03 1.04 1.04 1.06 1.06 1.04 1.01 1.03 1.03 1.02 0.99 0.97 0.96 0.96 0.96 0.95 0.95 0.93 0.91 0.90 0.90 0.90 0.89 0.87 0.87 0.86 0.81 0.76 0.73 0.72 0.71 0.70 0.67 0.64 0.61 0.60 0.60 0.59 0.59 0.58 0.57 0.56 0.54 0.53 0.52 0.51 0.48 0.46 0.46 0.45 0.45 0.42 0.41 0.37 0.41 0.43 0.46 0.45 0.45 0.46 0.46 0.47 0.46 0.45 0.46 0.45 0.45 0.44 0.45 0.45 0.45
0.97 0.98 0.95 0.94 0.91 0.90 0.90 0.89 0.88 0.91 0.92 0.94 0.94 0.93 0.98 1.05 1.07 1.08 1.11 1.09 1.06 1.05 1.05 1.03 1.00 0.99 0.96 0.94 0.96 0.97 0.98 0.98 0.94 0.93 0.94 0.94 0.92 0.90 0.90 0.90 0.89 0.87 0.85 0.83 0.82 0.81 0.79 0.76 0.74 0.70 0.66 0.62 0.62 0.61 0.62 0.61 0.60 0.58 0.56 0.54 0.53 0.53 0.51 0.48 0.46 0.44 0.41 0.38 0.39 0.41 0.41 0.41 0.45 0.48 0.50 0.46 0.45 0.46 0.47 0.46 0.47 0.48 0.48 0.49 0.48
0.97 0.96 0.98 0.95 0.96 0.95 0.95 0.93 0.91 0.91 0.91 0.92 0.94 0.89 0.87 0.94 1.02 1.10 1.11 1.09 1.07 1.04 0.99 1.00 1.02 1.01 1.02 1.01 1.00 1.00 1.01 1.01 0.99 0.97 0.97 0.97 0.96 0.93 0.92 0.91 0.91 0.90 0.89 0.88 0.87 0.86 0.85 0.84 0.82 0.79 0.76 0.70 0.67 0.67 0.68 0.68 0.67 0.64 0.62 0.60 0.59 0.57 0.53 0.50 0.47 0.45 0.43 0.41 0.38 0.35 0.36 0.35 0.35 0.37 0.40 0.41 0.41 0.41 0.43 0.45 0.45 0.47 0.47 0.46 0.47
0.93 0.96 0.94 0.90 0.90 0.92 0.93 0.93 0.90 0.88 0.89 0.92 0.96 0.94 0.92 0.95 0.99 1.02 1.05 1.05 1.03 1.01 0.99 0.98 0.99 1.00 1.02 1.04 1.02 1.01 1.02 1.03 1.03 1.02 1.01 0.99 0.96 0.94 0.93 0.92 0.91 0.90 0.90 0.89 0.87 0.86 0.85 0.84 0.82 0.83 0.81 0.79 0.76 0.74 0.75 0.73 0.71 0.68 0.67 0.65 0.64 0.60 0.56 0.52 0.50 0.47 0.45 0.43 0.40 0.38 0.35 0.36 0.35 0.32 0.36 0.38 0.37 0.37 0.36 0.37 0.37 0.41 0.42 0.42 0.41
0.85 0.87 0.89 0.90 0.90 0.92 0.94 0.94 0.93 0.93 0.93 0.92 0.92 0.97 0.98 0.99 1.00 1.01 1.02 1.00 1.00 1.00 0.99 0.98 1.00 1.01 1.01 1.00 1.01 1.03 1.03 1.05 1.06 1.05 1.02 0.99 0.96 0.97 0.97 0.95 0.94 0.92 0.91 0.89 0.87 0.87 0.86 0.85 0.85 0.86 0.86 0.84 0.82 0.80 0.78 0.75 0.74 0.71 0.71 0.68 0.66 0.62 0.58 0.55 0.52 0.49 0.47 0.44 0.41 0.38 0.38 0.37 0.37 0.38 0.38 0.36 0.33 0.33 0.36 0.35 0.33 0.36 0.40 0.42 0.42
0.75 0.77 0.78 0.76 0.79 0.82 0.86 0.87 0.87 0.87 0.91 0.94 0.95 0.96 0.97 0.96 0.96 0.95 0.96 0.95 0.96 0.98 1.00 1.02 1.02 1.01 1.01 1.00 1.00 1.02 1.01 1.01 1.01 0.99 0.96 0.95 0.95 0.94 0.96 0.95 0.94 0.93 0.94 0.92 0.91 0.89 0.88 0.87 0.88 0.90 0.90 0.89 0.87 0.86 0.85 0.82 0.79 0.75 0.74 0.71 0.66 0.61 0.58 0.55 0.51 0.48 0.45 0.43 0.42 0.42 0.40 0.38 0.37 0.36 0.35 0.35 0.35 0.34 0.37 0.38 0.35 0.36 0.38 0.38 0.40
0.54 0.60 0.64 0.66 0.64 0.63 0.62 0.63 0.65 0.63 0.63 0.64 0.68 0.73 0.78 0.81 0.81 0.80 0.80 0.82 0.85 0.88 0.90 0.92 0.93 0.94 0.96 0.97 0.98 0.99 1.00 1.02 1.03 1.00 0.99 0.97 0.97 0.97 0.96 0.94 0.92 0.89 0.87 0.86 0.87 0.89 0.88 0.86 0.85 0.87 0.87 0.86 0.84 0.83 0.81 0.79 0.78 0.76 0.73 0.70 0.67 0.62 0.60 0.55 0.50 0.45 0.42 0.40 0.40 0.40 0.38 0.38 0.39 0.39 0.37 0.38 0.39 0.39 0.36 0.35 0.33 0.34 0.35 0.33 0.34
0.50 0.50 0.53 0.57 0.56 0.59 0.60 0.65 0.65 0.63 0.64 0.65 0.66 0.65 0.67 0.70 0.71 0.71 0.73 0.76 0.78 0.79 0.80 0.79 0.81 0.83 0.84 0.86 0.89 0.94 0.97 0.99 0.98 0.96 0.96 0.97 0.97 0.96 0.94 0.92 0.91 0.89 0.86 0.82 0.80 0.81 0.84 0.85 0.85 0.85 0.84 0.83 0.81 0.79 0.78 0.75 0.72 0.68 0.65 0.64 0.63 0.60 0.55 0.51 0.47 0.44 0.41 0.40 0.41 0.41 0.40 0.39 0.40 0.41 0.40 0.39 0.40 0.39 0.37 0.36 0.34 0.32 0.29 0.28 0.26
0.48 0.48 0.49 0.49 0.49 0.48 0.48 0.49 0.52 0.55 0.58 0.58 0.58 0.61 0.64 0.66 0.66 0.67 0.66 0.66 0.69 0.74 0.75 0.75 0.78 0.81 0.81 0.82 0.81 0.83 0.88 0.94 0.95 0.95 0.96 0.97 0.97 0.96 0.94 0.92 0.91 0.90 0.86 0.83 0.82 0.81 0.81 0.82 0.82 0.82 0.80 0.78 0.76 0.75 0.74 0.70 0.67 0.63 0.60 0.59 0.59 0.59 0.56 0.51 0.46 0.42 0.40 0.38 0.38 0.38 0.38 0.37 0.38 0.38 0.37 0.38 0.37 0.38 0.38 0.37 0.35 0.34 0.31 0.29 0.28
0.40 0.41 0.45 0.46 0.47 0.47 0.47 0.47 0.48 0.49 0.50 0.51 0.52 0.52 0.52 0.52 0.52 0.53 0.54 0.58 0.61 0.61 0.63 0.66 0.70 0.76 0.79 0.79 0.78 0.78 0.75 0.76 0.78 0.82 0.85 0.87 0.89 0.90 0.90 0.90 0.88 0.85 0.86 0.86 0.83 0.81 0.77 0.77 0.79 0.80 0.80 0.78 0.76 0.73 0.70 0.67 0.64 0.62 0.59 0.57 0.57 0.57 0.54 0.52 0.49 0.44 0.41 0.38 0.36 0.36 0.36 0.36 0.34 0.34 0.36 0.36 0.37 0.33 0.34 0.32 0.33 0.33 0.32 0.30 0.30
0.44 0.44 0.45 0.43 0.42 0.43 0.44 0.44 0.44 0.46 0.48 0.48 0.47 0.47 0.47 0.47 0.49 0.51 0.52 0.53 0.54 0.56 0.59 0.60 0.63 0.66 0.72 0.77 0.78 0.75 0.69 0.69 0.70 0.71 0.73 0.75 0.77 0.78 0.79 0.80 0.80 0.78 0.78 0.80 0.81 0.79 0.77 0.76 0.74 0.71 0.71 0.70 0.71 0.71 0.69 0.67 0.64 0.61 0.58 0.57 0.56 0.55 0.53 0.49 0.46 0.45 0.44 0.41 0.39 0.36 0.38 0.39 0.34 0.34 0.36 0.37 0.33 0.31 0.30 0.29 0.31 0.29 0.29 0.29 0.32
0.46 0.46 0.46 0.47 0.46 0.44 0.43 0.41 0.40 0.39 0.39 0.38 0.38 0.38 0.40 0.40 0.40 0.42 0.42 0.42 0.43 0.45 0.47 0.49 0.53 0.59 0.62 0.66 0.70 0.72 0.70 0.67 0.66 0.68 0.70 0.70 0.71 0.72 0.72 0.73 0.72 0.72 0.73 0.74 0.74 0.72 0.70 0.70 0.72 0.75 0.76 0.75 0.75 0.73 0.69 0.65 0.62 0.61 0.59 0.55 0.54 0.52 0.49 0.46 0.45 0.45 0.44 0.43 0.41 0.40 0.39 0.38 0.37 0.36 0.36 0.36 0.35 0.34 0.34 0.32 0.32 0.32 0.32 0.33 0.32
0.47 0.48 0.47 0.48 0.48 0.48 0.46 0.44 0.44 0.44 0.44 0.43 0.41 0.40 0.39 0.38 0.37 0.39 0.40 0.41 0.42 0.41 0.41 0.41 0.43 0.47 0.53 0.57 0.59 0.59 0.61 0.62 0.63 0.64 0.67 0.68 0.68 0.68 0.68 0.69 0.71 0.73 0.74 0.72 0.70 0.69 0.70 0.71 0.72 0.72 0.72 0.71 0.71 0.69 0.67 0.64 0.61 0.58 0.55 0.53 0.50 0.48 0.45 0.46 0.47 0.46 0.45 0.44 0.42 0.41 0.40 0.39 0.38 0.37 0.36 0.35 0.34 0.35 0.34 0.34 0.34 0.32 0.29 0.27 0.25
0.47 0.47 0.47 0.49 0.49 0.48 0.48 0.47 0.47 0.46 0.46 0.45 0.44 0.43 0.42 0.43 0.44 0.46 0.43 0.43 0.41 0.40 0.38 0.39 0.41 0.41 0.44 0.50 0.54 0.56 0.57 0.58 0.59 0.61 0.63 0.64 0.63 0.64 0.65 0.66 0.66 0.65 0.66 0.67 0.68 0.67 0.67 0.66 0.65 0.65 0.64 0.63 0.63 0.62 0.60 0.59 0.57 0.55 0.51 0.47 0.45 0.43 0.42 0.44 0.45 0.45 0.45 0.43 0.42 0.40 0.39 0.37 0.36 0.35 0.35 0.35 0.34 0.34 0.32 0.29 0.27 0.29 0.26 0.23 0.24
0.48 0.46 0.46 0.49 0.50 0.51 0.50 0.50 0.49 0.50 0.50 0.47 0.47 0.47 0.48 0.50 0.48 0.50 0.46 0.45 0.43 0.43 0.42 0.41 0.42 0.43 0.45 0.47 0.49 0.51 0.53 0.56 0.57 0.58 0.59 0.60 0.61 0.60 0.60 0.60 0.60 0.60 0.60 0.60 0.60 0.61 0.62 0.61 0.61 0.60 0.60 0.59 0.59 0.58 0.58 0.57 0.53 0.48 0.44 0.42 0.41 0.39 0.40 0.42 0.42 0.42 0.40 0.38 0.37 0.36 0.36 0.36 0.36 0.35 0.35 0.35 0.34 0.34 0.31 0.27 0.29 0.29 0.26 0.26 0.23
0.44 0.43 0.45 0.47 0.48 0.48 0.47 0.47 0.47 0.47 0.48 0.49 0.49 0.50 0.51 0.52 0.53 0.53 0.51 0.49 0.47 0.46 0.45 0.43 0.43 0.45 0.46 0.49 0.51 0.51 0.52 0.53 0.55 0.56 0.57 0.58 0.58 0.57 0.56 0.53 0.50 0.50 0.50 0.51 0.52 0.53 0.53 0.53 0.53 0.53 0.55 0.56 0.56 0.55 0.52 0.49 0.45 0.44 0.43 0.40 0.37 0.36 0.38 0.39 0.36 0.34 0.34 0.34 0.34 0.35 0.35 0.36 0.36 0.36 0.35 0.35 0.35 0.35 0.34 0.32 0.32 0.30 0.27 0.27 0.27
0.47 0.47 0.48 0.48 0.48 0.47 0.47 0.46 0.47 0.48 0.48 0.50 0.51 0.51 0.53 0.53 0.52 0.51 0.50 0.49 0.46 0.45 0.44 0.45 0.45 0.46 0.49 0.51 0.51 0.51 0.52 0.52 0.53 0.54 0.54 0.55 0.54 0.53 0.52 0.50 0.45 0.42 0.43 0.45 0.47 0.48 0.48 0.48 0.48 0.51 0.53 0.52 0.51 0.49 0.48 0.47 0.44 0.41 0.39 0.37 0.36 0.35 0.37 0.36 0.35 0.35 0.34 0.34 0.34 0.35 0.34 0.35 0.35 0.35 0.35 0.35 0.35 0.36 0.35 0.35 0.34 0.33 0.30 0.29 0.29
0.50 0.51 0.52 0.51 0.51 0.50 0.50 0.49 0.49 0.51 0.52 0.52 0.54 0.55 0.56 0.54 0.53 0.52 0.51 0.51 0.50 0.49 0.48 0.48 0.48 0.49 0.51 0.52 0.52 0.53 0.53 0.53 0.53 0.53 0.53 0.52 0.50 0.49 0.47 0.45 0.44 0.44 0.45 0.46 0.46 0.45 0.46 0.47 0.48 0.48 0.49 0.49 0.47 0.46 0.44 0.41 0.40 0.39 0.38 0.36 0.36 0.36 0.37 0.35 0.35 0.36 0.34 0.33 0.33 0.33 0.33 0.33 0.33 0.34 0.33 0.34 0.34 0.35 0.36 0.36 0.36 0.36 0.34 0.32 0.30
0.52 0.53 0.53 0.53 0.53 0.53 0.52 0.52 0.54 0.54 0.54 0.54 0.53 0.52 0.54 0.54 0.53 0.53 0.52 0.51 0.49 0.46 0.45 0.45 0.47 0.49 0.51 0.53 0.53 0.53 0.53 0.53 0.53 0.54 0.53 0.52 0.51 0.50 0.47 0.47 0.48 0.47 0.45 0.45 0.45 0.45 0.45 0.45 0.44 0.46 0.47 0.45 0.43 0.40 0.40 0.40 0.39 0.38 0.38 0.38 0.37 0.36 0.36 0.37 0.35 0.33 0.31 0.30 0.30 0.30 0.30 0.30 0.31 0.31 0.33 0.33 0.34 0.35 0.36 0.37 0.37 0.37 0.37 0.37 0.35
0.48 0.50 0.51 0.51 0.51 0.51 0.52 0.53 0.55 0.56 0.55 0.55 0.53 0.52 0.53 0.52 0.50 0.49 0.48 0.47 0.46 0.46 0.47 0.47 0.47 0.47 0.48 0.50 0.51 0.51 0.51 0.52 0.52 0.52 0.52 0.51 0.50 0.49 0.48 0.46 0.45 0.46 0.45 0.44 0.43 0.44 0.46 0.47 0.46 0.45 0.43 0.41 0.41 0.41 0.39 0.38 0.38 0.37 0.37 0.37 0.37 0.38 0.37 0.35 0.33 0.31 0.29 0.29 0.29 0.29 0.30 0.30 0.30 0.31 0.32 0.33 0.34 0.36 0.36 0.37 0.37 0.38 0.38 0.39 0.39
0.46 0.45 0.46 0.47 0.49 0.51 0.52 0.53 0.53 0.52 0.52 0.52 0.51 0.49 0.48 0.47 0.46 0.45 0.46 0.47 0.47 0.47 0.47 0.46 0.45 0.45 0.46 0.47 0.49 0.50 0.50 0.51 0.51 0.50 0.49 0.49 0.48 0.46 0.45 0.45 0.45 0.45 0.45 0.44 0.45 0.44 0.42 0.42 0.42 0.42 0.41 0.40 0.38 0.37 0.37 0.37 0.36 0.36 0.37 0.37 0.37 0.37 0.34 0.32 0.31 0.30 0.29 0.29 0.29 0.29 0.29 0.30 0.30 0.30 0.31 0.32 0.33 0.34 0.35 0.36 0.37 0.38 0.38 0.39 0.40
0.45 0.45 0.45 0.47 0.48 0.49 0.50 0.50 0.51 0.51 0.51 0.51 0.49 0.49 0.49 0.50 0.48 0.50 0.50 0.50 0.50 0.48 0.46 0.46 0.45 0.45 0.45 0.46 0.47 0.47 0.49 0.49 0.49 0.48 0.47 0.45 0.43 0.42 0.43 0.44 0.46 0.45 0.43 0.42 0.42 0.42 0.42 0.41 0.40 0.39 0.37 0.36 0.36 0.36 0.36 0.36 0.37 0.38 0.38 0.37 0.35 0.33 0.32 0.31 0.30 0.30 0.29 0.29 0.29 0.28 0.28 0.29 0.30 0.31 0.33 0.34 0.35 0.36 0.35 0.36 0.37 0.38 0.39 0.40 0.40
0.44 0.45 0.46 0.47 0.47 0.48 0.48 0.49 0.50 0.50 0.49 0.49 0.49 0.50 0.49 0.49 0.47 0.47 0.48 0.48 0.47 0.45 0.43 0.43 0.43 0.43 0.43 0.45 0.46 0.47 0.47 0.47 0.46 0.44 0.43 0.41 0.41 0.42 0.44 0.46 0.45 0.44 0.44 0.42 0.41 0.40 0.39 0.37 0.36 0.37 0.37 0.37 0.36 0.35 0.35 0.37 0.37 0.36 0.35 0.35 0.33 0.32 0.32 0.31 0.30 0.30 0.28 0.28 0.27 0.27 0.28 0.30 0.31 0.33 0.34 0.35 0.35 0.34 0.35 0.35 0.35 0.36 0.37 0.38 0.38
0.42 0.42 0.42 0.43 0.44 0.46 0.46 0.46 0.47 0.48 0.47 0.47 0.47 0.48 0.49 0.49 0.48 0.47 0.47 0.45 0.43 0.42 0.41 0.41 0.40 0.41 0.43 0.45 0.47 0.49 0.46 0.43 0.40 0.39 0.40 0.41 0.42 0.42 0.43 0.44 0.44 0.42 0.40 0.40 0.39 0.37 0.37 0.37 0.37 0.36 0.36 0.36 0.36 0.36 0.35 0.35 0.34 0.33 0.33 0.32 0.32 0.32 0.32 0.31 0.30 0.29 0.28 0.28 0.29 0.29 0.30 0.32 0.33 0.34 0.33 0.34 0.34 0.36 0.37 0.37 0.37 0.37 0.39 0.40 0.39
0.39 0.39 0.40 0.42 0.43 0.43 0.43 0.44 0.44 0.42 0.43 0.43 0.43 0.44 0.48 0.51 0.49 0.48 0.47 0.46 0.42 0.40 0.38 0.37 0.37 0.39 0.45 0.48 0.47 0.42 0.41 0.41 0.40 0.39 0.41 0.42 0.42 0.44 0.44 0.43 0.39 0.38 0.37 0.37 0.37 0.38 0.37 0.36 0.35 0.34 0.34 0.33 0.32 0.32 0.32 0.32 0.31 0.31 0.30 0.31 0.31 0.32 0.31 0.31 0.31 0.31 0.30 0.31 0.31 0.31 0.32 0.33 0.32 0.34 0.35 0.36 0.36 0.38 0.40 0.39 0.39 0.39 0.41 0.42 0.40
0.38 0.39 0.41 0.42 0.43 0.45 0.44 0.44 0.42 0.40 0.40 0.43 0.45 0.47 0.49 0.50 0.50 0.50 0.51 0.48 0.45 0.41 0.39 0.39 0.42 0.48 0.50 0.48 0.42 0.39 0.38 0.37 0.39 0.43 0.43 0.43 0.41 0.40 0.37 0.34 0.35 0.35 0.35 0.36 0.36 0.35 0.34 0.32 0.31 0.30 0.30 0.29 0.29 0.29 0.29 0.29 0.28 0.29 0.30 0.31 0.30 0.30 0.30 0.30 0.29 0.29 0.30 0.31 0.30 0.31 0.32 0.34 0.34 0.36 0.37 0.37 0.39 0.40 0.43 0.43 0.44 0.44 0.45 0.46 0.43
0.38 0.39 0.41 0.41 0.41 0.41 0.42 0.42 0.43 0.44 0.44 0.44 0.45 0.46 0.49 0.49 0.48 0.47 0.46 0.49 0.49 0.48 0.45 0.44 0.48 0.49 0.46 0.45 0.46 0.44 0.41 0.42 0.45 0.46 0.44 0.42 0.41 0.37 0.35 0.35 0.35 0.35 0.35 0.35 0.34 0.30 0.29 0.28 0.29 0.29 0.28 0.28 0.27 0.27 0.27 0.27 0.27 0.28 0.28 0.29 0.29 0.29 0.30 0.30 0.30 0.31 0.32 0.32 0.33 0.33 0.34 0.36 0.36 0.38 0.39 0.40 0.42 0.44 0.46 0.47 0.47 0.49 0.47 0.47 0.47
0.38 0.39 0.40 0.40 0.41 0.42 0.45 0.45 0.46 0.45 0.44 0.44 0.44 0.44 0.44 0.46 0.46 0.46 0.46 0.46 0.47 0.47 0.47 0.48 0.49 0.49 0.49 0.47 0.49 0.45 0.42 0.44 0.47 0.47 0.44 0.39 0.35 0.35 0.36 0.37 0.36 0.36 0.35 0.33 0.31 0.29 0.27 0.27 0.27 0.28 0.28 0.27 0.26 0.26 0.27 0.27 0.27 0.26 0.27 0.28 0.29 0.30 0.31 0.31 0.32 0.33 0.33 0.34 0.35 0.36 0.37 0.38 0.39 0.41 0.42 0.44 0.45 0.47 0.49 0.50 0.51 0.51 0.50 0.50 0.50
0.40 0.41 0.42 0.43 0.45 0.45 0.46 0.46 0.46 0.46 0.45 0.45 0.43 0.42 0.41 0.39 0.39 0.41 0.42 0.44 0.45 0.46 0.47 0.48 0.49 0.49 0.50 0.49 0.46 0.41 0.44 0.46 0.45 0.41 0.36 0.35 0.37 0.38 0.38 0.37 0.37 0.36 0.36 0.35 0.31 0.29 0.28 0.27 0.27 0.27 0.27 0.26 0.27 0.27 0.27 0.26 0.27 0.27 0.28 0.28 0.29 0.31 0.31 0.32 0.34 0.35 0.36 0.36 0.37 0.38 0.41 0.42 0.44 0.45 0.47 0.48 0.48 0.49 0.50 0.50 0.51 0.51 0.52 0.52 0.52
0.41 0.41 0.42 0.44 0.43 0.43 0.42 0.42 0.42 0.42 0.41 0.40 0.39 0.38 0.37 0.35 0.33 0.33 0.38 0.43 0.45 0.45 0.46 0.47 0.48 0.48 0.48 0.47 0.44 0.45 0.45 0.43 0.37 0.35 0.37 0.38 0.39 0.39 0.38 0.38 0.38 0.38 0.38 0.35 0.31 0.28 0.27 0.26 0.26 0.26 0.27 0.27 0.28 0.27 0.26 0.27 0.27 0.28 0.29 0.30 0.30 0.32 0.34 0.35 0.37 0.37 0.37 0.39 0.40 0.42 0.45 0.47 0.48 0.49 0.49 0.50 0.50 0.50 0.51 0.51 0.52 0.52 0.52 0.51 0.52
0.44 0.44 0.44 0.43 0.41 0.42 0.43 0.42 0.41 0.40 0.40 0.39 0.38 0.37 0.36 0.36 0.35 0.36 0.37 0.38 0.41 0.44 0.47 0.48 0.48 0.49 0.47 0.45 0.45 0.43 0.40 0.38 0.38 0.40 0.42 0.42 0.41 0.40 0.40 0.39 0.40 0.40 0.37 0.32 0.30 0.27 0.26 0.25 0.26 0.27 0.28 0.28 0.27 0.27 0.27 0.28 0.29 0.30 0.31 0.32 0.33 0.34 0.36 0.38 0.38 0.38 0.40 0.42 0.44 0.47 0.49 0.50 0.51 0.50 0.50 0.51 0.52 0.52 0.52 0.52 0.52 0.52 0.52 0.52 0.51
0.46 0.45 0.44 0.43 0.42 0.41 0.41 0.40 0.39 0.38 0.38 0.38 0.38 0.38 0.38 0.40 0.40 0.41 0.42 0.42 0.42 0.41 0.41 0.43 0.45 0.45 0.43 0.41 0.41 0.40 0.40 0.41 0.43 0.44 0.43 0.42 0.42 0.42 0.41 0.38 0.35 0.34 0.33 0.32 0.29 0.27 0.26 0.26 0.27 0.28 0.27 0.27 0.27 0.27 0.28 0.29 0.30 0.31 0.32 0.33 0.34 0.36 0.37 0.38 0.39 0.41 0.43 0.46 0.49 0.50 0.51 0.52 0.52 0.52 0.52 0.52 0.52 0.51 0.52 0.52 0.52 0.52 0.52 0.52 0.51
0.43 0.43 0.43 0.43 0.42 0.42 0.41 0.40 0.39 0.38 0.38 0.39 0.41 0.42 0.43 0.42 0.43 0.43 0.44 0.44 0.43 0.41 0.40 0.40 0.40 0.40 0.40 0.42 0.44 0.45 0.45 0.46 0.45 0.45 0.44 0.44 0.43 0.41 0.35 0.32 0.30 0.30 0.30 0.30 0.29 0.27 0.27 0.27 0.27 0.27 0.28 0.28 0.28 0.28 0.30 0.31 0.32 0.33 0.34 0.34 0.35 0.36 0.37 0.38 0.40 0.43 0.47 0.50 0.52 0.53 0.53 0.53 0.54 0.53 0.54 0.53 0.53 0.52 0.52 0.52 0.52 0.52 0.51 0.50 0.50
0.42 0.42 0.41 0.41 0.40 0.40 0.39 0.39 0.39 0.40 0.41 0.42 0.43 0.43 0.43 0.42 0.42 0.42 0.41 0.40 0.39 0.39 0.39 0.40 0.40 0.42 0.45 0.46 0.47 0.47 0.47 0.45 0.44 0.44 0.43 0.42 0.40 0.36 0.32 0.31 0.29 0.29 0.29 0.29 0.29 0.27 0.26 0.27 0.28 0.28 0.28 0.28 0.29 0.30 0.31 0.32 0.33 0.34 0.35 0.36 0.37 0.37 0.38 0.40 0.42 0.46 0.50 0.53 0.54 0.54 0.54 0.54 0.54 0.54 0.53 0.52 0.52 0.52 0.52 0.51 0.51 0.51 0.51 0.50 0.50
0.42 0.42 0.42 0.41 0.41 0.40 0.39 0.40 0.41 0.42 0.42 0.43 0.43 0.43 0.43 0.44 0.44 0.43 0.42 0.41 0.41 0.41 0.41 0.44 0.45 0.43 0.42 0.42 0.45 0.44 0.43 0.43 0.42 0.41 0.40 0.39 0.36 0.34 0.33 0.31 0.30 0.30 0.30 0.31 0.29 0.27 0.26 0.27 0.29 0.29 0.29 0.30 0.30 0.31 0.31 0.32 0.33 0.33 0.34 0.36 0.37 0.38 0.39 0.41 0.45 0.50 0.53 0.55 0.55 0.55 0.55 0.54 0.54 0.53 0.52 0.50 0.50 0.50 0.51 0.51 0.51 0.50 0.50 0.50 0.50
0.44 0.43 0.43 0.42 0.42 0.42 0.42 0.43 0.44 0.45 0.45 0.46 0.47 0.47 0.47 0.47 0.46 0.45 0.45 0.44 0.43 0.43 0.43 0.43 0.43 0.42 0.42 0.43 0.43 0.43 0.39 0.37 0.35 0.34 0.35 0.35 0.35 0.35 0.32 0.31 0.31 0.31 0.32 0.32 0.30 0.27 0.27 0.28 0.29 0.30 0.30 0.30 0.30 0.31 0.32 0.32 0.33 0.33 0.34 0.35 0.36 0.38 0.39 0.41 0.46 0.51 0.54 0.54 0.54 0.54 0.53 0.52 0.52 0.52 0.52 0.52 0.52 0.52 0.52 0.52 0.52 0.50 0.49 0.49 0.50
0.45 0.44 0.43 0.44 0.45 0.46 0.47 0.47 0.48 0.49 0.49 0.49 0.50 0.49 0.48 0.46 0.45 0.44 0.44 0.44 0.44 0.43 0.43 0.42 0.41 0.42 0.44 0.44 0.43 0.41 0.37 0.35 0.34 0.33 0.33 0.33 0.33 0.33 0.33 0.32 0.32 0.31 0.32 0.32 0.30 0.27 0.27 0.28 0.30 0.29 0.30 0.30 0.31 0.31 0.32 0.32 0.32 0.33 0.34 0.35 0.35 0.37 0.39 0.42 0.47 0.52 0.54 0.54 0.54 0.53 0.53 0.53 0.54 0.54 0.55 0.55 0.54 0.54 0.53 0.52 0.51 0.51 0.50 0.50 0.52
0.45 0.44 0.46 0.49 0.50 0.51 0.50 0.50 0.50 0.50 0.50 0.50 0.50 0.49 0.47 0.48 0.48 0.48 0.47 0.47 0.46 0.45 0.45 0.45 0.45 0.46 0.46 0.45 0.43 0.41 0.37 0.35 0.34 0.32 0.32 0.32 0.33 0.33 0.33 0.33 0.33 0.33 0.34 0.33 0.30 0.28 0.28 0.29 0.30 0.30 0.30 0.31 0.31 0.32 0.32 0.32 0.32 0.33 0.33 0.34 0.35 0.37 0.39 0.42 0.48 0.52 0.54 0.54 0.54 0.54 0.54 0.55 0.56 0.56 0.54 0.55 0.56 0.55 0.53 0.52 0.51 0.50 0.50 0.50 0.52
0.47 0.49 0.51 0.52 0.53 0.52 0.51 0.50 0.51 0.52 0.52 0.51 0.50 0.50 0.50 0.50 0.50 0.50 0.49 0.48 0.48 0.48 0.47 0.46 0.46 0.46 0.45 0.43 0.40 0.38 0.36 0.34 0.33 0.32 0.33 0.34 0.34 0.34 0.34 0.34 0.34 0.35 0.35 0.33 0.30 0.29 0.30 0.31 0.31 0.31 0.31 0.31 0.32 0.32 0.32 0.32 0.32 0.32 0.32 0.33 0.34 0.36 0.38 0.41 0.47 0.52 0.54 0.54 0.55 0.55 0.55 0.56 0.56 0.56 0.56 0.56 0.56 0.55 0.52 0.51 0.50 0.50 0.49 0.49 0.50
0.53 0.53 0.53 0.52 0.52 0.51 0.50 0.50 0.52 0.52 0.51 0.51 0.51 0.52 0.51 0.51 0.50 0.50 0.49 0.49 0.48 0.48 0.46 0.46 0.46 0.45 0.43 0.40 0.38 0.36 0.34 0.33 0.32 0.33 0.34 0.35 0.35 0.35 0.34 0.33 0.34 0.35 0.35 0.34 0.31 0.31 0.32 0.32 0.32 0.32 0.32 0.32 0.32 0.32 0.32 0.32 0.32 0.32 0.31 0.32 0.33 0.35 0.37 0.40 0.45 0.51 0.54 0.54 0.55 0.56 0.56 0.57 0.57 0.57 0.57 0.57 0.57 0.56 0.54 0.52 0.51 0.49 0.49 0.49 0.49
0.54 0.53 0.53 0.52 0.51 0.51 0.51 0.51 0.51 0.52 0.52 0.52 0.53 0.53 0.53 0.52 0.50 0.50 0.49 0.48 0.48 0.49 0.48 0.47 0.44 0.42 0.40 0.38 0.36 0.34 0.33 0.33 0.34 0.35 0.35 0.35 0.35 0.33 0.32 0.33 0.33 0.34 0.34 0.32 0.31 0.32 0.33 0.33 0.32 0.33 0.34 0.34 0.34 0.34 0.34 0.34 0.34 0.32 0.31 0.31 0.32 0.35 0.37 0.39 0.42 0.48 0.53 0.54 0.55 0.55 0.56 0.57 0.57 0.57 0.57 0.58 0.57 0.56 0.55 0.54 0.53 0.50 0.49 0.48 0.48
0.54 0.53 0.52 0.51 0.51 0.50 0.51 0.52 0.52 0.52 0.52 0.52 0.52 0.51 0.51 0.50 0.49 0.49 0.49 0.48 0.48 0.48 0.46 0.44 0.42 0.40 0.38 0.35 0.33 0.32 0.33 0.34 0.35 0.35 0.35 0.34 0.33 0.31 0.32 0.32 0.33 0.33 0.32 0.31 0.32 0.33 0.33 0.33 0.33 0.33 0.34 0.34 0.35 0.34 0.34 0.35 0.34 0.33 0.31 0.31 0.32 0.34 0.36 0.38 0.41 0.47 0.53 0.54 0.55 0.55 0.56 0.56 0.56 0.57 0.57 0.58 0.57 0.57 0.57 0.56 0.55 0.52 0.49 0.48 0.47
0.53 0.53 0.52 0.51 0.51 0.51 0.51 0.51 0.51 0.51 0.50 0.50 0.48 0.48 0.48 0.48 0.48 0.47 0.46 0.46 0.45 0.44 0.43 0.42 0.40 0.38 0.35 0.32 0.32 0.32 0.33 0.34 0.35 0.35 0.34 0.32 0.31 0.31 0.33 0.33 0.33 0.32 0.32 0.32 0.33 0.33 0.33 0.34 0.34 0.34 0.34 0.35 0.34 0.34 0.35 0.35 0.34 0.32 0.31 0.31 0.33 0.36 0.38 0.40 0.42 0.45 0.49 0.53 0.55 0.56 0.56 0.56 0.57 0.57 0.57 0.58 0.58 0.58 0.57 0.58 0.57 0.55 0.51 0.49 0.48
0.54 0.53 0.52 0.52 0.51 0.50 0.51 0.51 0.52 0.51 0.50 0.49 0.48 0.47 0.46 0.45 0.44 0.44 0.44 0.44 0.43 0.42 0.40 0.38 0.37 0.33 0.31 0.30 0.31 0.32 0.33 0.33 0.33 0.33 0.32 0.31 0.31 0.32 0.33 0.33 0.33 0.32 0.32 0.33 0.33 0.33 0.34 0.34 0.35 0.35 0.35 0.35 0.35 0.35 0.34 0.34 0.33 0.31 0.30 0.30 0.33 0.36 0.38 0.40 0.42 0.43 0.46 0.51 0.55 0.56 0.56 0.56 0.56 0.57 0.58 0.58 0.58 0.58 0.58 0.57 0.56 0.55 0.53 0.50 0.49
0.54 0.53 0.52 0.52 0.51 0.50 0.50 0.50 0.50 0.49 0.48 0.47 0.47 0.46 0.44 0.43 0.42 0.42 0.42 0.41 0.40 0.39 0.37 0.35 0.31 0.29 0.29 0.30 0.31 0.32 0.32 0.32 0.32 0.31 0.31 0.31 0.31 0.32 0.33 0.33 0.32 0.32 0.33 0.33 0.34 0.34 0.34 0.35 0.35 0.35 0.36 0.36 0.35 0.35 0.34 0.33 0.31 0.29 0.29 0.29 0.32 0.36 0.38 0.40 0.41 0.43 0.45 0.48 0.52 0.55 0.56 0.56 0.56 0.57 0.57 0.58 0.57 0.58 0.57 0.57 0.57 0.57 0.55 0.52 0.51
0.54 0.53 0.52 0.50 0.50 0.49 0.48 0.48 0.47 0.47 0.46 0.46 0.44 0.43 0.42 0.42 0.41 0.42 0.41 0.41 0.39 0.38 0.35 0.31 0.28 0.29 0.29 0.29 0.30 0.30 0.31 0.30 0.30 0.30 0.30 0.31 0.31 0.31 0.33 0.33 0.33 0.33 0.33 0.33 0.34 0.34 0.34 0.35 0.35 0.36 0.36 0.36 0.36 0.35 0.34 0.32 0.30 0.29 0.28 0.28 0.31 0.34 0.37 0.39 0.41 0.42 0.43 0.45 0.48 0.52 0.55 0.56 0.56 0.56 0.57 0.57 0.58 0.58 0.58 0.58 0.57 0.56 0.56 0.55 0.53
0.54 0.53 0.52 0.51 0.49 0.49 0.49 0.49 0.48 0.46 0.45 0.45 0.43 0.42 0.41 0.41 0.41 0.41 0.41 0.39 0.38 0.36 0.32 0.30 0.28 0.29 0.29 0.29 0.29 0.29 0.29 0.29 0.29 0.29 0.30 0.30 0.30 0.31 0.33 0.33 0.33 0.33 0.33 0.33 0.33 0.33 0.34 0.35 0.35 0.36 0.36 0.36 0.36 0.35 0.33 0.31 0.29 0.29 0.27 0.27 0.29 0.32 0.35 0.38 0.40 0.41 0.42 0.43 0.45 0.49 0.52 0.54 0.55 0.56 0.56 0.57 0.57 0.58 0.58 0.58 0.58 0.57 0.56 0.55 0.54
0.53 0.52 0.52 0.51 0.51 0.50 0.50 0.49 0.48 0.47 0.46 0.44 0.42 0.42 0.42 0.42 0.41 0.41 0.40 0.38 0.36 0.33 0.30 0.29 0.29 0.29 0.28 0.29 0.29 0.29 0.29 0.29 0.29 0.29 0.30 0.30 0.30 0.31 0.33 0.33 0.32 0.33 0.33 0.34 0.33 0.33 0.33 0.34 0.35 0.35 0.35 0.35 0.35 0.34 0.33 0.30 0.30 0.29 0.27 0.27 0.28 0.31 0.34 0.36 0.38 0.39 0.41 0.42 0.44 0.46 0.48 0.51 0.53 0.54 0.54 0.55 0.56 0.56 0.57 0.57 0.58 0.57 0.57 0.56 0.56
Wind_Speed
14 15 17 18 18 17 17 17 18 18 17 16 16 15 15 15 14 14 13 13 13 12 12 11 11 11 11 10 10 10 10 10 10 10 10 10 9 9 9 9 9 8 8 8 7 7 7 7 7 7 7 6 6 6 6 6 6 6 6 7 7 7 8 9 10 11 11 12 12 13 13 14 14 15 15 16 16 16 17 17 18 18 18 19 19
12 12 14 16 18 18 17 17 17 18 19 18 18 17 16 16 16 15 15 14 13 13 12 12 12 11 11 11 11 11 11 11 11 11 11 11 11 11 11 11 11 11 10 10 9 9 9 9 9 9 8 8 8 8 8 8 8 8 8 8 9 9 10 10 11 12 13 14 14 14 15 15 16 16 17 17 18 18 18 18 18 19 19 19 19
10 11 12 13 15 16 16 16 16 17 18 19 19 19 18 18 17 16 16 16 15 15 15 14 14 14 13 13 13 13 13 12 12 12 12 12 12 12 12 12 12 12 12 12 12 11 11 11 11 11 10 10 10 10 10 9 9 10 10 10 11 11 12 12 13 14 15 16 16 17 17 17 18 18 19 19 19 19 20 20 20 20 20 20 20
11 11 11 12 14 15 16 16 17 17 18 19 19 19 20 20 19 17 17 18 17 17 16 16 16 17 17 16 16 16 15 14 14 14 14 14 14 13 13 13 13 13 13 13 13 13 12 12 12 12 12 11 11 11 11 11 11 11 12 12 12 13 14 14 15 15 16 17 18 19 19 19 20 20 20 20 21 21 21 21 21 21 21 21 21
12 12 12 13 14 15 15 16 17 17 18 19 19 19 19 19 19 18 18 18 18 17 17 17 17 18 19 19 19 18 18 17 16 16 17 16 16 15 15 15 14 14 14 14 14 14 14 14 14 14 13 13 13 12 12 13 13 13 14 14 14 15 16 16 17 17 18 19 19 20 20 21 21 22 22 22 22 23 22 22 23 23 23 23 23
13 13 13 13 14 15 16 17 17 18 19 19 19 19 19 19 20 19 19 18 18 18 18 18 18 19 19 20 20 20 20 19 18 18 18 18 18 17 17 17 17 16 16 16 16 16 15 15 15 15 15 15 15 14 14 14 15 15 16 16 17 17 18 18 19 19 20 20 21 21 22 22 22 23 23 23 24 24 24 24 24 24 25 25 25
13 14 14 14 15 16 17 17 18 19 19 20 20 21 21 21 21 21 20 20 20 20 20 20 19 19 19 19 20 21 21 21 20 20 20 20 20 20 19 19 18 18 18 17 17 17 17 17 16 16 16 16 16 16 16 16 17 17 17 18 18 19 20 20 21 21 22 22 22 23 23 23 24 24 25 25 25 25 25 26 26 26 26 26 27
13 14 14 14 15 16 16 17 18 18 19 20 20 21 22 22 22 22 22 22 22 21 21 21 20 20 20 20 20 21 22 22 21 21 21 20 21 21 21 20 20 20 20 19 19 19 19 18 18 18 18 18 18 18 18 18 18 19 19 20 20 21 21 22 22 23 23 24 24 24 25 25 25 26 26 26 27 27 27 27 28 28 28 28 28
13 13 13 14 14 15 15 16 16 17 18 18 19 20 20 21 21 22 22 22 22 22 21 21 21 21 21 22 22 22 23 23 23 22 22 21 21 21 22 21 21 21 21 22 22 21 21 21 20 20 20 20 20 20 20 20 20 20 21 21 22 23 23 24 24 25 25 25 26 26 26 26 27 27 28 28 28 29 29 29 29 30 30 30 30
14 14 14 15 15 16 16 16 16 16 17 17 18 18 19 19 19 20 20 21 21 22 21 21 21 21 22 22 22 23 23 23 23 23 23 23 23 23 23 23 23 23 23 24 24 24 24 24 23 23 23 22 22 22 22 22 22 22 22 23 24 25 25 26 26 26 27 27 27 27 28 28 29 29 30 30 30 31 31 31 31 31 31 32 32
15 15 15 16 17 17 17 18 18 18 18 19 19 19 20 20 20 21 21 22 22 23 23 23 23 22 22 22 22 23 23 23 24 24 25 25 25 25 25 25 25 25 25 26 26 26 27 27 26 26 26 25 25 25 25 25 25 25 25 25 26 27 27 28 29 29 28 29 29 29 30 30 31 31 32 32 32 32 32 32 33 33 32 32 32
17 18 18 18 18 18 18 18 18 19 19 19 19 19 20 20 21 22 22 23 23 24 24 25 25 24 24 24 24 24 24 24 25 25 26 27 27 27 27 27 28 28 28 28 28 28 28 28 28 28 28 28 28 28 28 27 27 27 28 28 29 29 30 30 31 31 31 31 32 32 33 33 33 33 33 34 34 34 34 34 34 34 35 35 35
19 20 20 20 20 20 20 20 20 20 20 20 20 20 20 21 21 22 23 23 23 24 24 25 25 25 26 26 26 25 25 26 26 27 28 28 28 28 28 29 29 29 30 30 30 29 29 29 29 29 29 29 30 30 30 29 29 30 30 30 31 31 32 32 33 33 33 34 34 35 35 35 36 35 35 36 36 36 37 36 36 37 37 37 38
21 21 21 21 21 21 21 22 22 22 22 22 22 22 22 23 23 23 24 24 24 25 25 25 26 26 26 27 26 26 26 27 27 28 29 29 29 29 29 29 29 30 30 30 30 30 30 30 30 30 30 30 30 30 30 30 31 31 32 32 32 33 33 34 35 35 35 35 36 36 37 37 37 37 37 37 38 38 38 38 39 39 39 40 40
22 22 22 22 22 22 23 23 23 23 23 23 23 24 24 24 24 25 25 25 25 25 26 26 26 26 26 26 26 27 27 28 28 28 28 29 29 29 29 29 29 29 29 29 29 30 30 30 30 29 29 30 30 30 31 31 32 32 32 33 33 34 34 35 36 36 36 36 37 38 38 38 38 39 39 39 39 40 40 41 41 41 42 42 42
23 23 23 23 23 23 23 23 23 24 24 24 24 24 24 25 25 25 25 25 26 26 26 26 26 25 25 26 26 26 27 27 27 28 28 28 28 28 28 28 28 28 27 28 28 29 30 30 30 29 30 30 30 30 31 32 32 33 33 34 34 35 35 36 36 36 36 37 38 38 39 39 40 40 40 40 41 41 42 42 42 42 43 43 43
25 25 24 24 24 24 24 24 24 24 24 24 25 25 25 26 25 25 25 25 26 26 26 26 26 25 25 26 26 26 26 27 27 27 27 27 28 28 28 27 27 27 27 27 28 29 30 30 30 31 31 31 31 31 32 33 33 34 34 35 35 35 36 36 36 37 38 38 39 39 40 40 40 40 40 41 41 41 41 41 42 42 43 43 43
27 27 26 26 26 26 25 25 26 26 26 26 26 27 27 26 26 26 26 26 26 26 26 26 26 26 25 25 26 26 26 26 26 26 26 26 27 27 27 26 26 27 27 28 28 29 30 30 31 31 32 32 32 32 33 33 34 35 35 35 35 36 36 36 37 37 38 39 39 39 39 39 40 40 40 40 40 40 40 40 41 41 42 42 43
28 29 29 28 28 28 28 28 28 28 28 28 28 28 28 28 28 27 27 27 27 27 27 27 27 27 26 26 26 26 26 26 26 25 25 25 26 26 26 26 26 27 27 28 28 29 29 30 30 31 31 32 32 33 33 34 34 35 35 35 35 36 36 36 37 37 38 38 38 38 39 39 39 40 40 40 40 40 40 40 40 41 42 42 42
30 31 31 30 30 30 29 29 29 29 29 29 29 29 29 28 28 28 28 28 28 27 27 27 27 27 27 28 27 27 27 26 26 25 25 25 25 25 26 26 26 27 27 28 28 28 29 30 30 30 31 31 32 33 34 34 34 34 35 35 35 35 36 36 36 37 37 38 38 38 39 39 39 39 40 40 40 40 40 40 40 40 41 42 42
32 32 31 31 30 30 30 30 30 30 30 29 29 29 29 29 29 29 28 28 28 28 28 28 28 28 28 28 28 28 27 27 26 26 25 25 25 25 26 27 27 27 27 28 28 28 29 29 30 30 31 31 32 33 33 34 34 34 34 34 34 35 35 35 36 36 37 37 38 38 38 38 38 39 39 39 39 40 40 41 41 41 41 42 42
32 32 31 31 31 31 31 31 31 31 30 30 30 30 29 29 29 29 29 29 29 29 29 29 28 28 28 27 27 28 27 27 27 26 25 25 25 25 26 27 27 27 27 28 28 28 29 29 30 30 31 31 32 32 33 33 33 33 33 34 34 34 35 35 35 36 36 36 37 37 37 37 37 37 38 38 38 39 40 41 41 42 43 43 44
33 32 32 32 32 32 32 32 32 32 31 31 31 30 30 30 30 30 29 29 29 29 29 29 28 28 28 28 28 28 27 27 27 26 26 26 26 26 26 26 26 27 27 28 28 28 29 29 30 30 31 31 31 32 32 32 32 32 32 33 33 34 34 34 34 35 35 35 35 35 35 36 36 37 37 38 39 40 41 41 42 43 44 44 45
32 32 32 32 32 32 32 32 32 31 31 31 31 31 31 30 30 30 30 30 29 29 29 29 29 29 29 28 28 28 28 28 27 27 27 27 27 26 26 26 26 26 27 27 27 27 28 28 29 29 30 30 30 30 30 30 30 31 31 31 32 32 32 32 32 33 33 33 33 34 35 35 36 37 38 39 40 41 41 42 43 43 44 44 45
31 32 32 32 32 32 32 31 31 31 32 32 32 32 31 31 31 30 30 30 30 30 30 30 29 29 29 29 29 29 28 28 28 28 27 27 26 26 25 25 25 25 25 25 26 26 26 27 27 27 27 27 27 27 28 28 28 29 29 29 30 30 30 30 31 31 32 32 33 34 35 35 36 37 38 39 40 41 41 42 42 43 43 44 44
32 31 32 32 32 32 32 31 32 32 32 33 33 32 32 32 32 31 31 31 31 31 30 30 30 30 30 30 29 29 28 28 28 27 27 26 26 25 25 24 24 24 23 24 24 24 24 24 24 24 24 24 24 25 25 26 26 26 27 27 28 28 29 29 30 30 31 32 33 33 34 35 36 37 38 39 40 40 41 41 42 42 42 42 42
33 33 33 33 33 33 33 33 33 33 33 33 33 33 32 32 32 32 31 31 30 30 30 30 30 30 30 29 29 29 29 28 28 27 26 26 25 25 24 24 23 23 22 22 22 21 21 21 21 21 21 21 22 22 23 23 24 24 25 25 26 26 27 27 28 29 30 31 32 33 35 36 37 38 39 39 40 40 40 40 40 40 40 40 41
34 34 34 34 34 34 34 34 34 33 33 33 32 32 32 32 32 31 31 31 30 30 30 30 30 30 29 28 28 28 28 28 27 26 26 25 25 24 23 22 22 21 21 20 20 19 18 18 18 18 19 19 19 20 20 21 22 22 23 23 24 24 25 26 27 28 30 31 33 34 36 37 38 38 39 39 39 39 39 39 39 39 38 38 38
34 34 34 34 34 34 34 34 33 33 32 32 32 31 31 31 31 31 31 30 30 30 30 30 30 29 28 28 28 28 28 27 26 25 24 24 23 22 21 20 19 19 18 18 18 17 17 17 17 17 18 18 18 19 19 19 20 20 21 22 23 24 25 26 27 29 30 32 34 35 37 38 38 38 38 38 38 37 37 36 36 35 34 33 33
33 33 33 33 33 33 33 33 32 31 31 31 31 31 31 31 31 31 31 31 30 30 30 29 29 28 28 28 28 27 26 25 23 22 21 20 19 19 18 18 17 17 17 17 16 16 16 16 16 17 17 17 17 17 18 18 19 19 20 21 22 24 25 26 28 29 31 33 35 36 37 37 38 37 37 36 35 34 32 31 30 29 29 28 28
33 33 32 32 31 31 31 31 30 30 30 30 30 30 31 31 30 30 31 30 30 29 29 28 28 28 27 27 26 24 23 21 20 19 18 18 17 17 16 16 16 16 16 16 15 15 15 15 15 15 16 16 16 17 17 18 18 19 20 21 22 24 25 27 29 30 32 34 35 36 37 36 36 35 33 31 30 28 27 27 26 26 26 25 25
32 32 31 31 30 30 30 30 30 30 30 30 31 31 30 30 30 29 29 29 28 28 27 27 27 26 25 24 22 20 20 19 18 18 17 17 16 16 16 15 15 15 15 14 14 14 14 14 14 14 15 15 16 16 16 17 18 19 20 21 23 24 26 28 29 31 33 34 35 35 35 33 32 30 28 27 26 25 24 24 24 24 24 24 24
30 30 29 29 29 29 29 30 30 30 30 30 30 30 30 29 28 27 26 26 26 26 25 25 24 22 20 19 19 19 19 18 17 17 16 16 15 15 15 15 15 14 14 13 13 13 13 13 13 13 14 14 15 15 15 16 17 18 20 21 23 25 26 28 30 31 33 34 34 33 31 29 27 26 25 24 23 23 22 22 22 22 23 23 23
27 27 28 27 28 28 28 28 29 29 29 28 28 27 27 26 25 25 24 23 22 22 21 20 19 18 17 17 17 18 18 17 16 16 15 14 14 14 14 14 14 13 13 13 12 12 12 12 12 13 13 13 13 14 15 15 17 18 20 21 23 25 27 28 30 32 33 33 31 29 27 25 24 23 22 22 22 21 21 21 21 21 22 22 23
26 26 26 26 26 26 26 26 26 25 25 25 24 24 23 23 23 23 22 20 18 17 16 16 16 16 16 16 16 16 16 15 15 14 14 13 13 13 12 12 12 12 12 11 11 11 11 11 11 11 11 12 12 13 14 15 16 18 20 22 23 25 27 29 31 32 32 30 28 25 24 22 22 21 20 20 20 20 20 21 21 22 22 22 23
25 25 25 25 25 24 24 23 23 22 22 22 21 21 20 19 19 18 17 16 15 15 15 15 16 16 15 15 15 14 14 13 13 13 13 12 12 11 11 11 11 10 10 10 10 10 10 10 9 9 9 10 11 12 13 15 17 19 20 22 24 26 28 29 31 31 29 27 24 22 21 20 19 19 19 19 20 20 21 21 21 21 22 22 22
23 23 23 23 23 22 21 21 21 20 19 18 17 17 16 15 15 14 14 14 15 15 15 15 15 15 15 14 14 13 13 12 12 12 12 11 11 11 10 10 9 9 9 9 9 9 8 8 7 7 8 9 10 12 13 15 17 19 21 22 24 26 28 30 31 29 26 23 21 20 19 18 18 18 19 19 19 19 19 20 20 20 21 22 23
21 21 20 20 20 19 19 18 18 17 16 15 15 14 14 13 13 13 14 14 15 15 15 14 15 15 15 14 13 13 12 11 11 11 11 11 10 10 9 9 9 8 8 8 8 7 7 6 6 6 7 8 10 12 13 15 17 19 21 23 25 27 29 30 30 27 23 20 19 18 18 18 18 18 18 18 19 19 19 19 20 20 21 23 23
19 18 17 17 17 16 16 15 14 14 14 14 13 13 13 13 13 13 14 14 14 14 14 14 14 14 14 13 13 12 11 11 11 11 11 10 9 9 9 9 8 8 8 7 7 6 5 5 6 6 7 8 10 12 13 15 17 19 21 23 25 27 29 30 28 25 21 19 18 18 18 18 18 18 18 18 19 19 20 20 21 21 22 22 22
16 15 14 13 13 13 13 12 11 11 12 12 12 12 13 13 13 13 13 13 13 13 13 13 13 13 13 13 12 12 11 11 11 11 10 9 9 9 9 8 8 7 7 6 5 5 5 5 6 6 7 9 10 12 14 16 17 19 21 23 25 27 28 29 27 23 20 18 18 18 18 18 18 18 18 18 19 19 19 20 20 20 21 21 20
12 11 11 10 10 10 10 11 10 10 11 12 12 13 13 13 13 13 13 13 13 12 12 12 12 12 12 12 12 11 10 10 10 10 9 9 9 8 8 7 7 6 6 5 5 5 5 5 6 6 7 9 10 12 14 16 18 20 22 23 25 26 28 29 27 22 19 18 18 18 18 18 17 18 18 18 18 18 18 18 18 18 18 18 18
10 10 9 9 9 10 11 12 11 10 11 12 12 13 13 12 12 12 13 13 12 12 11 11 11 11 11 11 11 11 10 10 10 9 9 9 8 8 7 7 6 6 5 5 4 4 5 5 6 7 8 9 11 13 14 16 18 20 22 23 25 26 28 28 27 23 19 18 18 18 17 17 17 18 18 17 17 16 16 17 17 17 17 17 17
10 10 10 10 11 12 13 13 12 12 12 13 13 12 12 12 12 12 12 12 12 11 11 11 11 11 11 11 11 11 11 10 9 9 8 8 7 7 6 6 6 5 5 4 4 4 5 6 6 7 8 10 11 13 14 16 18 20 21 23 24 25 27 28 27 24 20 18 18 18 17 16 17 18 18 17 16 16 16 17 17 17 17 16 16
12 11 11 12 12 12 12 12 12 12 13 14 13 12 11 11 12 12 12 12 12 11 11 11 11 12 12 12 12 11 11 10 9 9 8 7 7 6 6 6 6 5 5 4 4 5 5 6 7 8 9 10 12 13 15 16 18 20 21 22 24 25 26 28 28 25 21 19 18 18 16 16 17 17 17 16 16 16 16 17 17 17 16 15 15
13 12 12 13 13 12 12 11 11 12 12 13 12 11 11 11 11 11 11 12 12 11 11 12 12 12 12 11 11 11 10 9 9 8 7 6 6 6 6 6 6 5 5 5 5 5 6 7 7 8 10 11 12 13 15 16 18 20 21 22 23 24 25 27 27 26 22 19 18 17 16 16 16 17 17 16 16 16 16 16 16 16 15 14 13
13 13 13 13 13 12 12 11 11 11 12 12 11 10 10 10 10 10 11 11 11 11 11 11 11 11 11 11 10 10 9 9 8 7 6 5 5 5 6 6 6 6 6 6 6 6 7 7 8 9 10 12 13 14 15 17 19 20 21 22 23 23 24 26 27 27 24 20 18 17 16 16 16 16 16 16 15 15 15 15 15 15 14 13 13
13 13 13 13 12 12 12 11 11 11 11 11 10 9 10 10 10 11 11 11 11 11 11 11 11 11 10 10 10 9 8 7 7 6 5 5 5 5 6 6 6 6 6 6 7 7 8 9 9 10 11 12 13 14 15 17 18 19 21 22 22 23 24 25 26 27 25 23 20 17 16 15 15 16 16 16 15 15 14 14 13 13 13 12 12
13 13 13 12 12 11 11 10 10 10 10 10 9 9 10 10 10 10 11 11 11 11 11 11 11 10 10 9 9 8 7 6 6 5 4 5 5 6 6 7 7 7 7 7 8 8 9 10 10 11 12 12 13 14 15 16 18 19 20 21 22 23 24 25 25 26 26 24 21 18 16 15 15 15 15 15 15 15 14 13 12 11 11 11 11
12 12 12 11 11 10 10 9 9 9 9 9 9 9 9 10 10 10 10 10 10 10 10 10 10 9 9 8 8 7 6 6 5 5 5 5 6 6 7 7 8 8 8 8 8 9 10 10 11 12 12 12 13 13 15 16 17 18 19 21 22 23 24 24 25 26 26 25 23 20 17 15 15 14 14 14 14 14 13 12 11 10 10 10 10
11 11 11 10 9 9 8 7 7 7 8 8 8 9 9 9 9 9 9 9 9 9 9 8 8 8 7 7 6 6 6 6 6 6 6 6 7 7 8 8 9 9 9 9 9 10 10 11 11 12 12 12 13 13 14 16 17 18 19 20 21 23 23 24 24 25 26 26 24 21 18 16 15 14 14 13 13 13 12 12 10 9 9 9 9
10 10 9 9 8 7 7 6 6 6 6 7 7 7 8 8 8 9 9 9 8 8 8 7 7 6 6 6 6 6 6 6 7 7 7 7 8 8 9 9 10 10 10 10 10 10 11 11 11 12 12 12 13 13 14 16 16 17 18 19 20 22 23 24 24 25 25 25 25 23 20 17 15 14 13 13 12 12 11 11 10 9 8 7 8
Wind_Direction
243 242 238 232 233 238 239 239 239 239 238 237 237 237 238 241 244 248 250 250 252 253 254 255 255 258 259 258 259 259 259 260 259 259 258 258 259 259 258 256 254 253 252 252 252 250 250 250 252 255 253 252 255 257 259 261 263 265 268 269 272 275 275 275 274 273 273 274 276 277 278 278 277 277 277 277 277 278 277 276 276 275 274 274 274
243 242 238 233 235 237 237 238 240 240 236 235 237 239 242 245 246 247 248 248 250 251 253 256 257 257 258 259 260 260 261 262 262 262 260 259 259 259 258 257 256 254 253 253 253 253 253 253 254 256 255 256 259 260 261 263 264 266 269 271 274 277 277 278 277 276 276 279 279 280 281 280 280 280 281 279 279 280 279 278 278 278 277 277 276
246 244 239 234 232 231 233 237 238 238 236 237 240 243 246 247 246 246 248 247 248 251 254 257 257 256 257 259 260 261 262 264 264 263 261 260 260 260 259 259 258 256 255 254 255 256 256 257 258 258 258 260 263 262 262 264 265 267 271 273 275 278 278 279 279 278 278 280 281 282 283 283 282 282 282 281 281 280 279 279 279 279 279 279 278
247 245 242 238 233 231 232 236 237 238 239 241 244 247 250 248 245 248 252 248 247 251 255 258 257 256 257 257 259 260 261 262 263 263 261 260 260 259 258 258 258 258 258 258 257 257 258 258 259 260 260 262 265 265 265 267 268 271 274 275 277 279 280 280 280 279 279 280 281 282 283 283 282 282 282 281 281 280 279 279 280 279 279 279 277
249 247 246 243 239 235 235 238 239 241 244 246 247 251 253 249 247 251 254 250 248 250 256 261 260 258 256 255 256 258 259 259 260 261 261 261 260 259 257 257 257 259 260 260 259 259 258 258 258 259 260 261 264 266 266 268 271 274 276 277 279 282 283 282 281 281 281 282 282 282 282 282 281 281 281 282 281 280 280 279 279 278 278 278 277
254 252 251 249 247 244 243 246 247 248 249 250 251 252 254 252 252 255 255 255 254 253 258 263 263 260 259 256 255 256 257 257 258 259 260 260 259 259 258 257 257 257 258 258 258 258 257 257 257 258 260 261 262 264 266 269 272 274 276 277 280 282 284 284 283 283 283 283 283 283 283 283 282 281 281 282 282 281 281 280 279 278 278 278 277
259 256 254 254 254 252 250 252 253 254 254 255 254 255 255 255 256 256 257 259 260 259 261 263 262 261 261 259 257 256 256 257 257 257 258 258 258 259 259 259 258 257 257 257 256 256 256 255 256 257 259 260 260 262 264 268 270 273 274 276 279 282 284 284 284 284 284 284 284 284 284 283 283 282 282 282 281 281 281 281 280 279 278 278 277
261 258 256 256 255 254 254 255 256 257 258 258 257 257 258 258 257 258 259 260 262 263 264 264 263 262 262 261 260 258 257 258 258 257 257 258 258 258 258 259 259 258 257 257 257 256 255 256 256 258 260 261 261 262 264 267 270 273 274 276 279 281 283 283 284 284 284 285 284 284 284 284 284 283 283 283 282 281 281 281 280 280 279 279 278
263 261 259 258 258 257 257 257 258 259 259 260 259 259 260 260 260 260 261 261 263 264 265 264 264 263 263 263 262 261 260 259 258 258 257 258 259 258 257 257 258 259 259 258 258 257 257 258 259 260 261 262 262 263 265 268 271 273 275 278 280 282 283 283 283 284 284 285 284 284 284 284 284 285 284 284 283 282 281 281 280 280 279 279 278
263 263 261 262 263 262 261 260 261 262 262 262 262 262 262 262 262 263 263 264 264 265 266 266 266 266 265 264 263 263 263 261 258 257 258 259 259 259 258 257 258 260 260 259 258 257 257 258 259 260 261 262 262 264 266 269 271 273 275 278 280 281 282 283 283 283 284 284 284 284 284 284 284 285 284 284 283 282 282 281 281 280 280 279 277
263 262 261 263 264 264 263 263 264 264 265 265 264 264 264 264 264 265 265 266 266 266 267 267 267 267 267 267 266 265 264 263 261 259 259 260 260 259 259 258 259 260 260 259 258 258 258 259 260 261 262 263 264 266 269 271 273 274 276 278 279 279 280 281 282 282 282 283 283 283 283 283 284 284 284 284 283 282 282 282 281 281 280 279 278
264 263 263 263 263 263 263 263 263 264 265 265 265 265 264 264 265 266 266 267 267 267 267 267 266 267 268 268 269 268 267 266 264 263 262 262 261 261 261 260 261 262 263 262 261 260 259 259 261 262 263 265 266 268 271 273 275 276 277 278 278 279 279 280 280 281 281 282 282 283 283 283 283 284 284 283 282 282 281 281 280 280 280 279 278
267 266 266 266 264 263 263 263 263 264 265 265 266 266 266 267 267 267 267 268 268 267 267 267 266 266 266 267 267 267 267 267 266 264 264 264 264 264 263 263 263 264 264 264 263 261 260 260 261 262 263 265 267 269 271 274 276 277 277 277 278 278 278 279 279 280 280 281 281 282 282 282 283 283 283 282 282 281 280 280 279 279 279 278 278
269 268 267 268 267 265 265 265 265 266 266 266 266 267 268 269 269 269 269 269 269 269 268 268 267 267 266 265 265 266 266 267 266 265 265 265 265 266 266 265 265 265 265 265 262 261 261 261 261 262 264 265 267 269 271 274 275 276 277 278 278 278 279 279 279 280 280 280 281 281 282 282 282 282 282 282 281 281 280 280 279 279 278 278 278
270 269 268 267 267 267 267 267 267 267 267 268 268 268 268 270 271 271 271 271 271 270 270 270 269 268 267 266 266 266 266 267 266 265 265 265 265 266 267 266 265 265 265 264 261 260 260 261 262 263 265 266 267 269 271 272 274 275 277 278 278 278 279 280 281 281 281 281 281 281 281 282 282 282 282 282 281 280 280 279 279 278 278 278 277
269 269 269 268 267 266 267 267 267 267 267 268 269 269 269 271 272 271 271 272 272 273 273 272 271 269 268 267 266 266 267 267 266 266 266 266 266 267 266 266 265 265 264 263 261 260 260 261 262 264 266 267 268 270 271 273 274 275 277 277 278 279 280 281 281 281 281 282 282 281 281 282 282 282 282 282 281 280 280 279 279 278 278 277 277
267 267 268 268 267 267 267 267 268 268 267 267 268 269 270 271 271 270 271 272 273 273 273 273 272 270 269 267 266 266 267 267 266 266 266 267 267 267 266 265 265 264 263 263 263 262 262 262 263 265 266 267 269 271 272 274 275 276 277 278 279 280 280 280 281 281 282 282 282 282 282 282 282 282 282 282 281 281 280 280 279 279 278 277 277
264 265 266 267 267 267 267 268 268 269 269 268 268 269 270 270 270 270 270 271 272 272 272 272 272 271 270 269 267 267 267 268 267 267 267 267 267 266 265 264 264 264 264 264 265 265 265 265 265 266 267 268 270 272 273 275 276 276 277 278 279 280 280 280 281 281 282 282 282 282 282 282 282 282 282 282 282 281 280 280 279 279 278 277 277
265 266 266 266 267 268 268 269 269 269 269 269 269 269 270 270 270 271 271 271 271 272 271 271 271 271 270 269 269 268 268 269 268 268 267 267 267 266 266 265 264 264 265 265 265 266 266 266 266 267 267 269 271 272 274 275 276 277 277 278 279 280 280 280 281 281 282 282 282 282 282 282 282 282 282 282 282 281 280 279 279 279 278 278 278
267 266 266 266 267 267 268 269 269 269 268 268 268 269 269 270 271 272 272 272 272 272 272 271 270 270 269 269 269 269 269 269 269 269 268 267 266 266 266 265 265 265 265 265 266 267 267 268 268 268 269 270 271 272 273 275 276 277 277 278 278 279 280 280 281 281 282 282 283 283 283 283 283 282 282 282 282 281 280 280 280 279 279 278 278
267 265 264 265 265 266 267 268 269 268 268 268 268 269 270 270 271 271 271 271 271 271 271 270 269 269 268 268 268 269 269 268 268 268 268 268 267 267 267 266 266 266 266 267 267 268 269 270 270 271 271 272 273 274 275 276 277 277 278 278 279 279 280 281 282 283 283 283 283 283 283 283 282 282 282 282 282 282 281 281 280 280 279 279 278
265 264 263 264 264 265 266 267 267 268 268 269 269 270 271 271 271 271 270 270 270 270 269 269 268 268 268 267 267 268 268 267 267 268 268 268 268 268 267 267 266 266 267 268 268 269 269 270 271 271 272 273 275 276 276 277 278 278 279 279 280 281 282 283 283 284 284 284 284 284 283 283 283 283 283 283 283 283 283 282 282 281 280 279 278
264 264 264 264 264 265 265 266 267 268 269 269 269 270 271 271 271 270 270 269 269 268 268 268 267 267 267 267 266 266 266 266 266 267 267 268 269 268 268 267 266 266 267 267 267 268 268 269 271 272 273 275 276 276 276 277 278 279 280 280 281 282 283 284 285 285 285 285 285 285 285 285 285 285 285 285 284 284 283 282 282 281 280 279 278
264 264 264 264 264 265 266 266 267 267 267 268 269 269 269 269 269 269 269 268 267 267 266 266 266 266 265 265 265 265 265 265 265 267 268 269 269 269 268 267 267 266 266 267 267 268 269 270 272 273 274 275 276 276 277 278 279 280 281 282 283 284 284 285 285 285 286 286 286 286 286 286 286 286 286 285 285 284 284 283 282 281 280 279 278
264 264 264 264 265 265 265 265 266 266 267 268 268 268 268 268 267 267 267 266 266 266 266 265 265 264 264 264 264 263 263 264 266 267 268 268 267 267 267 266 266 265 266 267 268 269 270 271 272 274 275 276 277 278 279 280 281 282 283 283 284 284 285 285 286 286 287 287 288 288 288 288 288 287 287 287 286 286 285 284 283 282 281 280 279
262 263 264 264 264 264 264 264 265 266 267 267 267 267 267 267 267 267 266 266 266 266 265 264 264 264 263 263 263 263 263 265 266 267 266 265 265 265 264 264 264 265 266 267 267 269 270 272 273 275 276 278 279 280 281 282 283 283 284 284 285 285 286 287 288 288 289 289 290 290 290 290 290 289 289 288 287 286 286 285 284 283 282 281 280
262 263 264 264 264 264 264 264 265 266 266 266 267 267 267 267 266 266 265 265 265 265 264 263 263 263 262 262 262 262 263 264 264 264 263 262 262 262 262 262 262 263 264 264 266 268 270 273 275 277 279 281 282 283 283 284 285 285 286 286 287 288 289 290 290 290 291 291 292 292 292 292 292 292 290 289 288 287 286 285 284 283 283 282 281
262 263 263 263 263 264 264 264 265 266 266 266 266 266 266 266 265 265 265 265 264 263 262 262 262 262 261 261 261 261 261 261 260 259 259 258 258 258 259 259 259 260 261 263 265 269 271 274 277 280 282 283 285 286 287 287 288 289 290 291 291 291 291 291 292 292 293 294 294 294 295 294 294 293 292 290 289 289 288 286 285 284 284 283 282
262 262 262 261 262 263 264 265 265 265 265 266 266 266 265 265 265 265 265 265 263 262 262 262 261 261 260 260 260 260 259 258 257 256 255 255 255 255 256 256 256 258 261 263 266 269 272 275 278 281 283 285 288 289 291 292 293 293 293 293 293 293 293 294 295 296 297 297 297 297 297 296 295 294 293 292 291 290 289 288 287 286 285 284 283
262 261 261 261 262 262 263 264 264 264 264 265 265 265 265 266 266 265 265 264 262 262 261 261 261 260 260 261 261 259 256 254 251 251 251 251 251 252 252 253 254 257 260 263 266 269 271 275 278 282 284 288 291 293 294 295 295 294 294 294 295 296 297 299 299 300 301 301 300 299 298 298 297 295 294 293 292 291 290 288 288 287 286 285 284
260 260 261 261 261 261 262 262 263 263 264 264 264 264 265 266 266 266 265 263 260 259 259 259 259 259 260 260 259 255 251 246 244 245 247 246 246 247 248 250 252 255 259 262 265 268 271 275 280 283 286 290 292 294 293 293 294 295 297 299 301 302 303 304 304 304 304 303 302 301 300 299 298 297 295 294 293 292 291 290 289 288 286 285 284
259 259 260 260 260 261 261 262 262 263 264 264 264 263 263 264 265 266 265 261 258 257 257 257 257 257 256 253 249 245 242 240 239 240 241 241 242 244 246 248 251 254 258 261 264 268 273 277 280 284 288 290 291 291 292 294 297 300 302 304 305 306 307 307 307 307 307 306 305 304 302 301 299 298 297 295 294 293 292 291 289 288 287 286 285
259 258 259 259 260 261 262 262 263 264 264 264 264 263 261 261 262 262 261 259 257 256 255 254 251 249 244 239 235 235 235 234 234 235 235 236 239 242 245 248 249 252 256 260 264 269 274 278 281 284 286 287 288 291 295 299 301 303 306 308 309 310 310 310 311 311 310 309 307 306 304 303 301 300 298 296 295 294 292 291 290 289 288 287 286
258 258 258 259 260 261 262 263 263 263 263 263 263 261 260 259 258 257 256 254 252 251 249 245 239 234 230 229 228 228 228 227 227 228 230 233 238 242 245 246 248 251 255 259 263 268 273 277 279 281 284 287 292 296 300 303 305 308 312 313 313 314 314 315 315 315 313 312 309 308 306 304 303 301 299 298 297 295 293 292 291 290 289 289 288
258 258 258 259 260 261 262 262 263 263 262 262 261 260 258 256 255 253 248 242 237 235 232 230 226 223 223 223 222 220 220 221 223 226 232 236 239 241 243 245 248 251 254 257 261 265 270 273 276 280 285 291 296 299 303 308 312 315 317 317 317 318 319 320 320 319 317 314 312 310 308 306 305 303 301 300 298 296 295 295 294 293 292 291 291
257 258 259 259 259 260 260 261 262 262 261 260 258 256 253 248 245 240 231 223 220 220 218 217 217 216 215 215 213 213 215 218 222 228 233 234 235 236 239 241 243 246 249 254 258 262 267 271 276 282 289 294 299 304 310 315 318 319 320 320 322 323 324 324 324 322 320 317 314 312 311 309 308 306 304 302 300 299 299 298 297 296 295 294 294
256 257 257 256 257 257 258 259 259 258 257 253 248 243 238 232 226 221 215 212 212 211 209 207 208 208 208 209 209 210 212 216 221 225 227 228 231 234 235 236 238 242 246 251 255 259 263 269 275 284 292 299 304 311 316 319 321 323 325 326 327 328 329 328 327 325 322 319 317 316 315 314 313 311 308 306 304 303 302 301 300 299 298 298 297
254 253 252 252 252 253 253 254 252 248 243 236 230 226 222 217 212 209 206 204 203 202 201 202 203 203 204 205 206 208 212 217 221 224 226 229 232 231 230 232 236 240 244 248 251 254 259 266 275 286 296 303 309 315 320 322 325 328 330 331 332 332 332 332 330 328 326 323 322 321 320 319 318 316 313 311 309 308 306 304 303 302 300 299 298
250 248 246 247 247 247 246 245 241 234 227 222 219 215 211 206 202 199 197 195 194 194 194 196 199 202 203 203 204 207 213 220 224 224 225 226 226 226 226 229 233 236 239 242 246 250 257 267 278 289 299 307 313 319 323 326 329 332 334 334 334 335 336 335 334 331 328 326 325 324 322 321 320 318 317 314 312 310 308 307 306 304 302 301 299
242 239 238 239 239 237 233 226 218 211 206 202 198 195 192 190 188 187 186 186 187 189 191 194 198 202 204 205 207 210 215 217 216 213 212 213 215 218 220 222 225 228 231 235 240 248 259 271 283 293 302 310 316 322 326 329 332 335 335 336 337 338 339 339 338 334 330 328 327 324 324 324 323 322 321 318 315 313 312 311 310 309 307 304 302
224 221 221 220 216 211 203 194 186 182 179 178 177 177 178 179 180 181 183 184 186 189 192 195 198 202 205 207 208 208 206 202 198 198 200 203 205 208 210 214 218 221 224 231 241 253 266 279 288 296 305 313 320 325 328 332 335 337 337 338 340 341 342 342 341 337 333 331 329 328 327 328 329 329 327 325 323 321 320 319 318 316 314 310 307
197 194 191 185 179 176 173 170 169 169 170 170 170 170 173 178 182 185 187 188 188 190 192 193 195 199 202 201 198 193 190 188 188 190 194 195 198 201 205 211 215 219 224 234 247 261 275 284 290 298 307 316 323 328 331 335 337 338 338 339 341 343 344 345 345 341 336 333 333 332 332 334 335 334 333 332 332 331 330 328 326 325 322 319 314
171 168 163 158 157 156 156 157 159 161 162 162 161 162 165 170 174 178 181 183 185 186 186 187 188 189 188 186 182 181 182 184 185 187 190 193 198 204 209 215 219 223 230 242 257 272 281 286 292 301 309 317 325 330 333 336 338 339 339 340 342 344 346 348 347 344 339 335 336 336 335 336 337 337 335 335 336 336 336 336 335 333 330 327 324
158 155 151 151 153 152 150 150 152 154 156 157 158 159 161 162 163 167 170 173 176 179 180 180 179 177 176 175 176 178 181 184 187 190 194 199 205 210 217 222 225 229 239 255 270 281 286 290 295 303 312 320 326 331 334 337 339 340 340 341 343 345 348 349 350 347 342 337 337 337 336 335 337 337 336 336 337 338 339 341 341 339 336 334 333
152 149 147 149 152 153 152 151 151 152 156 160 162 164 165 165 164 166 169 172 174 175 175 175 174 173 174 175 177 180 184 188 191 195 199 204 211 218 225 229 231 236 249 264 276 284 289 293 298 305 313 320 326 331 334 337 339 340 341 342 344 345 348 350 350 350 346 340 337 336 335 334 336 338 339 338 339 339 340 342 344 344 342 342 344
144 142 142 146 149 152 153 152 151 153 157 162 164 167 170 172 171 171 172 173 173 172 172 173 174 175 176 176 178 182 186 188 191 194 199 207 218 227 231 234 237 244 256 268 276 283 289 294 300 306 313 320 325 330 334 337 339 339 341 343 344 345 347 349 350 351 349 344 338 336 335 335 336 340 342 342 342 340 341 344 348 349 349 351 353
134 135 138 141 144 146 148 150 151 154 159 162 165 167 170 171 171 170 170 170 170 172 174 175 176 177 176 176 178 181 182 185 189 195 203 217 229 235 238 240 243 251 261 269 275 282 289 296 302 308 313 319 324 328 333 336 338 339 341 343 344 345 347 348 350 351 351 348 342 337 335 335 336 339 342 346 347 345 344 347 352 354 355 357 359
129 130 132 134 136 139 142 145 148 154 158 161 163 164 165 166 166 167 168 169 171 173 175 176 176 175 174 175 177 181 185 190 197 206 218 231 240 244 246 247 250 257 265 271 275 282 290 298 304 309 313 318 323 327 331 335 337 339 341 343 344 344 345 347 349 351 352 350 346 341 337 336 335 336 340 347 351 350 348 349 354 358 1 2 3
131 129 129 129 130 134 138 140 144 149 154 157 159 161 162 162 164 166 168 170 172 175 176 177 176 176 176 178 182 189 197 204 214 224 236 245 251 253 254 255 258 263 268 271 276 283 292 300 306 309 312 316 320 325 329 333 335 338 340 342 344 344 345 346 349 351 352 352 349 346 340 337 334 334 336 343 350 353 351 349 353 359 4 6 6
137 134 131 129 129 132 134 136 140 145 150 155 159 161 163 165 168 170 171 172 174 177 181 183 184 187 191 195 200 208 216 225 235 245 252 256 259 259 259 260 263 266 269 272 278 286 294 300 304 307 310 314 318 323 327 331 333 336 338 340 342 344 345 346 348 350 352 352 351 349 345 339 335 332 332 336 344 350 351 349 349 355 3 7 7
143 142 140 138 137 139 141 141 143 147 152 156 160 163 167 171 174 177 178 180 182 186 191 196 200 206 212 218 222 228 235 244 251 258 261 262 263 263 263 264 266 267 270 274 281 287 293 298 301 305 308 312 316 321 326 328 331 333 335 338 341 343 345 346 347 349 350 352 352 351 349 344 338 333 330 331 336 342 347 348 346 347 353 359 3